{"data":{"norad_id":47903,"intl_designator":"2021-021AV","name":"STARLINK-2363","alt_names":[],"object_type":"PAYLOAD","status":"ACTIVE","operator":null,"country":"US","launch_date":"2021-03-14","launch_site_code":"AFETR","launch_vehicle":null,"mission":null,"orbit_class":"UNKNOWN","rcs_meters":null,"size_class":null,"mass_kg":null,"dimensions":null,"purposes":["comms"],"wikipedia_slug":null,"has_3d_model":false,"image_url":null,"decayed_at":null,"tle_current":{"epoch":"2026-07-07T19:01:17.272128Z","epoch_age_seconds":6483972,"freshness":"OLD","line1":"1 47903U 21021AV  26188.79256102  .11153450  12548-4  30410-3 0  9991","line2":"2 47903  53.1363   9.9168 0012848 289.4646  70.5015 16.44421949295818","mean_motion":16.44421949,"eccentricity":0.0012848,"inclination_deg":53.1363,"raan_deg":9.9168,"arg_perigee_deg":289.4646,"mean_anomaly_deg":70.5015,"bstar":0.0003041,"rev_number":29581,"period_min":87.568765478695,"perigee_km":145.67330473318,"apogee_km":162.45845325104,"semimajor_km":6532.2028789921,"source":"CELESTRAK","updated_at":"2026-07-08T09:00:52.089152Z"}}}